CW7104 Weather Reports


Display with metric or nautical units.
time (UTC)temp
F
wind
direction
speed
MPH
gust
MPH
rain 1hr
in
rain 24hr
in
rain mn
in
humidity
%
barometer
mb
20260503210405 71 178 7.0 20.0 0.00 0.00 0.00 36 1014.8
20260503205904 70 185 6.0 13.0 0.00 0.00 0.00 38 1014.9
20260503205404 70 166 5.0 12.0 0.00 0.00 0.00 37 1015.2
20260503204904 70 143 2.0 12.0 0.00 0.00 0.00 38 1015.4
20260503204404 70 172 6.0 16.0 0.00 0.00 0.00 37 1015.5
20260503203404 70 159 6.0 13.0 0.00 0.00 0.00 37 1015.6
20260503202904 70 163 7.0 15.0 0.00 0.00 0.00 37 1015.8
20260503202405 70 159 6.0 16.0 0.00 0.00 0.00 38 1016.0
20260503201404 69 258 6.0 15.0 0.00 0.00 0.00 39 1016.3
20260503200904 69 251 3.0 12.0 0.00 0.00 0.00 39 1016.3
20260503200404 69 287 7.0 18.0 0.00 0.00 0.00 37 1016.4
20260503195904 69 162 2.0 12.0 0.00 0.00 0.00 40 1016.6
20260503195405 69 184 6.0 14.0 0.00 0.00 0.00 39 1016.8
20260503194905 68 170 6.0 12.0 0.00 0.00 0.00 40 1016.9
20260503194405 68 186 8.0 15.0 0.00 0.00 0.00 40 1017.1
20260503193904 68 278 4.0 12.0 0.00 0.00 0.00 41 1017.2
20260503193404 68 326 9.0 22.0 0.00 0.00 0.00 40 1017.2
20260503192905 68 218 3.0 9.0 0.00 0.00 0.00 42 1017.2
20260503192405 68 169 3.0 14.0 0.00 0.00 0.00 41 1017.4
20260503191904 68 146 7.0 21.0 0.00 0.00 0.00 41 1017.3
20260503191405 68 159 7.0 13.0 0.00 0.00 0.00 40 1017.5
20260503190904 68 146 5.0 18.0 0.00 0.00 0.00 41 1017.4
20260503190404 68 192 7.0 14.0 0.00 0.00 0.00 41 1017.6
20260503185905 67 142 6.0 14.0 0.00 0.00 0.00 41 1017.7
20260503185404 68 315 5.0 12.0 0.00 0.00 0.00 42 1017.8
20260503184904 68 238 2.0 12.0 0.00 0.00 0.00 42 1017.8
20260503184404 68 331 1.0 9.0 0.00 0.00 0.00 42 1017.9
20260503183904 67 147 1.0 8.0 0.00 0.00 0.00 43 1018.3
20260503183404 67 137 2.0 10.0 0.00 0.00 0.00 42 1018.3
20260503182904 67 160 5.0 12.0 0.00 0.00 0.00 42 1018.5
20260503182404 66 192 3.0 16.0 0.00 0.00 0.00 43 1018.6
20260503181904 66 155 5.0 13.0 0.00 0.00 0.00 44 1018.7
20260503181405 66 171 7.0 15.0 0.00 0.00 0.00 43 1018.8
20260503180904 66 265 5.0 15.0 0.00 0.00 0.00 42 1018.8
20260503180404 66 162 5.0 13.0 0.00 0.00 0.00 44 1018.8
20260503175904 66 156 7.0 15.0 0.00 0.00 0.00 45 1019.0
20260503174904 66 197 7.0 13.0 0.00 0.00 0.00 45 1019.4
20260503174405 66 165 5.0 13.0 0.00 0.00 0.00 47 1019.5
20260503173904 65 182 6.0 12.0 0.00 0.00 0.00 45 1019.6
20260503173404 65 300 3.0 12.0 0.00 0.00 0.00 47 1019.7
20260503172905 65 146 6.0 18.0 0.00 0.00 0.00 47 1019.7
20260503172404 65 324 3.0 13.0 0.00 0.00 0.00 46 1019.9
20260503171904 65 150 4.0 14.0 0.00 0.00 0.00 47 1020.0
20260503171404 65 359 2.0 10.0 0.00 0.00 0.00 46 1020.1
20260503150904 59 138 3.0 9.0 0.00 0.00 0.00 56 1021.2
20260503131404 47 165 0.0 0.0 0.00 0.00 0.00 82 1021.4
20260503130904 47 157 0.0 0.0 0.00 0.00 0.00 82 1021.3
20260503130404 46 170 0.0 0.0 0.00 0.00 0.00 82 1021.4
20260503110404 39 335 0.0 0.0 0.00 0.00 0.00 82 1020.8
20260503090405 37 335 0.0 0.0 0.00 0.00 0.00 81 1020.8
20260503080905 38 335 0.0 0.0 0.00 0.00 0.00 81 1020.7
20260503080405 38 335 0.0 0.0 0.00 0.00 0.00 81 1020.7
20260503072906 38 335 0.0 0.0 0.00 0.00 0.00 80 1020.7
20260503072405 38 335 0.0 0.0 0.00 0.00 0.00 80 1020.7
20260503071905 38 335 0.0 0.0 0.00 0.00 0.00 80 1020.7
20260503071405 38 335 0.0 0.0 0.00 0.00 0.00 80 1020.6
20260503070905 38 335 0.0 0.0 0.00 0.00 0.00 80 1020.8
20260503070405 39 335 0.0 0.0 0.00 0.00 0.00 80 1020.7
20260503054405 40 335 0.0 0.0 0.00 0.00 0.00 80 1020.9
20260503053905 40 335 0.0 0.0 0.00 0.00 0.00 79 1020.8
20260503053405 40 335 0.0 0.0 0.00 0.00 0.00 79 1020.8
20260503052905 40 335 0.0 0.0 0.00 0.00 0.00 79 1020.9
20260503052404 40 335 0.0 0.0 0.00 0.00 0.00 79 1020.9
20260503051905 41 335 0.0 0.0 0.00 0.00 0.00 79 1020.9
20260503050905 41 334 0.0 0.0 0.00 0.00 0.00 79 1020.9
20260503050405 41 335 0.0 0.0 0.00 0.00 0.00 79 1020.8
20260503045904 41 335 0.0 0.0 0.00 0.00 0.00 79 1020.8
20260503045405 41 335 0.0 0.0 0.00 0.00 0.00 78 1020.8
20260503044905 41 335 0.0 0.0 0.00 0.00 0.00 78 1020.7
20260503044405 41 335 0.0 0.0 0.00 0.00 0.00 78 1020.6
20260503043905 41 334 0.0 0.0 0.00 0.00 0.00 78 1020.7
20260503043405 41 335 0.0 0.0 0.00 0.00 0.00 78 1020.7
20260503042905 41 335 0.0 0.0 0.00 0.00 0.00 78 1020.7
20260503041904 42 335 0.0 0.0 0.00 0.00 0.00 78 1020.6
20260503041406 42 335 0.0 0.0 0.00 0.00 0.00 78 1020.5
20260503040405 42 334 0.0 0.0 0.00 0.00 0.00 77 1020.7
20260503035905 42 335 0.0 0.0 0.00 0.00 0.00 77 1020.6
20260503035405 42 334 0.0 0.0 0.00 0.00 0.00 77 1020.7
20260503034405 42 335 0.0 0.0 0.00 0.00 0.00 76 1020.7
20260503033904 42 335 0.0 0.0 0.00 0.00 0.00 75 1020.7
20260503033405 42 335 0.0 0.0 0.00 0.00 0.00 75 1020.7
20260503032905 43 335 0.0 0.0 0.00 0.00 0.00 75 1020.7
20260503032404 43 334 0.0 0.0 0.00 0.00 0.00 74 1020.6
20260503031905 43 335 0.0 0.0 0.00 0.00 0.00 74 1020.6
20260503031405 43 335 0.0 0.0 0.00 0.00 0.00 73 1020.5
20260503030405 43 335 0.0 0.0 0.00 0.00 0.00 72 1020.5
20260503025905 44 335 0.0 0.0 0.00 0.00 0.00 72 1020.5
20260503025405 44 335 0.0 0.0 0.00 0.00 0.00 72 1020.4
20260503024905 44 335 0.0 0.0 0.00 0.00 0.00 72 1020.4
20260503024405 44 335 0.0 0.0 0.00 0.00 0.00 71 1020.3
20260503023905 45 335 0.0 0.0 0.00 0.00 0.00 71 1020.3
20260503023404 45 335 0.0 0.0 0.00 0.00 0.00 70 1020.3
20260503022905 45 335 0.0 0.0 0.00 0.00 0.00 70 1020.2
20260503021905 46 335 0.0 0.0 0.00 0.00 0.00 69 1020.1
20260503021405 46 335 0.0 0.0 0.00 0.00 0.00 69 1020.0
20260503020405 46 335 0.0 0.0 0.00 0.00 0.00 68 1020.0
20260503014904 47 335 0.0 0.0 0.00 0.00 0.00 66 1019.8
20260503014405 47 335 0.0 0.0 0.00 0.00 0.00 65 1019.8
20260503013904 48 335 0.0 0.0 0.00 0.00 0.00 64 1019.8
20260503013405 48 335 0.0 0.0 0.00 0.00 0.00 64 1019.8
20260503012905 48 335 0.0 0.0 0.00 0.00 0.00 63 1019.7
20260503011905 49 335 0.0 0.0 0.00 0.00 0.00 62 1019.5
20260503011404 49 334 0.0 0.0 0.00 0.00 0.00 61 1019.5
20260503010905 50 335 0.0 0.0 0.00 0.00 0.00 61 1019.4
20260503010405 50 335 0.0 0.0 0.00 0.00 0.00 59 1019.4
20260503005904 51 335 0.0 0.0 0.00 0.00 0.00 59 1019.4
20260503005405 52 335 0.0 0.0 0.00 0.00 0.00 58 1019.4
20260503004904 52 335 0.0 0.0 0.00 0.00 0.00 57 1019.4
20260503004404 52 335 0.0 0.0 0.00 0.00 0.00 56 1019.5
20260503003404 53 335 0.0 0.0 0.00 0.00 0.00 55 1019.4
20260503002905 54 335 0.0 0.0 0.00 0.00 0.00 54 1019.3
20260503001905 54 335 0.0 0.0 0.00 0.00 0.00 53 1019.2
20260503001405 55 335 0.0 0.0 0.00 0.00 0.00 52 1019.1
20260503000905 55 335 0.0 0.0 0.00 0.00 0.00 51 1019.1
20260503000404 56 335 0.0 0.0 0.00 0.00 0.00 50 1019.1
20260502235405 56 334 0.0 0.0 0.00 0.00 0.00 50 1019.0
20260502234405 55 9 0.0 0.0 0.00 0.00 0.00 51 1019.0
20260502233905 55 8 0.0 0.0 0.00 0.00 0.00 52 1019.0
20260502233404 54 8 0.0 0.0 0.00 0.00 0.00 53 1019.0
20260502232904 54 8 0.0 0.0 0.00 0.00 0.00 51 1019.1
20260502232405 55 9 0.0 0.0 0.00 0.00 0.00 51 1019.0
20260502231904 55 25 0.0 0.0 0.00 0.00 0.00 51 1019.1
20260502231404 55 12 0.0 0.0 0.00 0.00 0.00 51 1019.1
20260502230905 55 8 0.0 0.0 0.00 0.00 0.00 52 1019.1
20260502225404 55 8 0.0 5.0 0.00 0.00 0.00 53 1019.0
20260502224904 55 4 0.0 1.0 0.00 0.00 0.00 52 1019.0
20260502224405 55 2 1.0 6.0 0.00 0.00 0.00 52 1018.9
20260502223904 56 9 0.0 0.0 0.00 0.00 0.00 51 1019.0
20260502223404 56 2 1.0 7.0 0.00 0.00 0.00 51 1019.0
20260502222904 56 6 3.0 6.0 0.00 0.00 0.00 50 1019.0
20260502221904 57 10 5.0 9.0 0.00 0.00 0.00 50 1018.9
20260502220904 57 36 3.0 8.0 0.00 0.00 0.00 51 1018.8
20260502220404 57 6 0.0 1.0 0.00 0.00 0.00 53 1018.8
20260502215905 57 45 0.0 0.0 0.00 0.00 0.00 50 1018.8
20260502215404 57 46 0.0 1.0 0.00 0.00 0.00 52 1018.7
20260502214905 58 18 0.0 0.0 0.00 0.00 0.00 51 1018.8
20260502214404 58 26 0.0 1.0 0.00 0.00 0.00 52 1018.7
20260502213904 58 8 0.0 0.0 0.00 0.00 0.00 51 1018.8
20260502213405 59 12 1.0 3.0 0.00 0.00 0.00 50 1018.7
20260502212904 59 15 1.0 5.0 0.00 0.00 0.00 52 1018.7
20260502212405 59 6 3.0 8.0 0.00 0.00 0.00 50 1018.8
20260502211905 59 356 5.0 9.0 0.00 0.00 0.00 51 1018.8
20260502211404 59 8 3.0 7.0 0.00 0.00 0.00 54 1018.7
20260502210904 58 21 1.0 6.0 0.00 0.00 0.00 53 1018.7